Dodge City, KS

1:24 AM CDT on July 23, 2017 (GMT -0500)
Dodge City Regional

Weather History for KDDC - May, 2012

Change the Weather History Date:

Sunday, May 6, 2012

  Actual Average Record
Temperature  
Mean Temperature 64 °F -  
Max Temperature 73 °F 73 °F 96 °F (2004)
Min Temperature 59 °F 48 °F 32 °F (1944)
Growing Degree Days 14 (Base 50)    
Moisture  
Dew Point 57 °F    
Average Humidity 76    
Maximum Humidity 94    
Minimum Humidity 51    
Precipitation  
Precipitation 0.00 in - - ()
Sea Level Pressure  
Sea Level Pressure 29.82 in    
Wind  
Wind Speed 19 mph (North)    
Max Wind Speed 30 mph    
Max Gust Speed 44 mph    
Visibility 8 miles    
Events      
Averages and records for this station are not official NWS values.
T = Trace of Precipitation, MM = Missing Value Source: NWS Daily Summary

Daily Weather History Graph

Daily Weather History Graph

Search for Another Location

Airport or City:

Trip Planner

Search our weather history database for the weather conditions in past years. The results will help you decide how hot, cold, wet, or windy it might be!

Date:

Astronomy

May. 06, 2012 Rise Set
Actual Time 6:38 AM CDT 8:35 PM CDT
Civil Twilight 6:09 AM CDT 9:04 PM CDT
Nautical Twilight 5:34 AM CDT 9:39 PM CDT
Astronomical Twilight 4:57 AM CDT 10:16 PM CDT
Moon 9:41 PM CDT (5/6) 6:50 AM CDT (5/6)
Length of Visible Light 14h 54m
Length of Day
13h 57m
Full, 100% of the Moon is Illuminated
May 6
Full
May 12
Last Quarter
May 20
New
May 28
First Quarter
Jun 4
Full

Hourly Weather History & Observations

Time (CDT) Temp. Dew Point Humidity Pressure Visibility Wind Dir Wind Speed Gust Speed Precip Events Conditions
12:52 AM 73.0 °F 66.9 °F 81% 29.61 in 6.0 mi SSE 16.1 mph 24.2 mph N/A   Haze
1:52 AM 72.0 °F 66.9 °F 84% 29.62 in 5.0 mi SSE 15.0 mph - N/A   Haze
2:52 AM 69.8 °F 66.2 °F 88% 29.71 in 4.0 mi SSE 11.5 mph - N/A   Clear
3:52 AM 69.1 °F 66.0 °F 90% 29.61 in 4.0 mi South 9.2 mph - N/A   Clear
4:52 AM 68.0 °F 64.9 °F 90% 29.63 in 4.0 mi NW 19.6 mph 26.5 mph N/A   Partly Cloudy
5:52 AM 62.1 °F 59.0 °F 90% 29.67 in 6.0 mi NNW 15.0 mph 20.7 mph N/A   Clear
6:17 AM 62.6 °F 60.8 °F 94% 29.77 in 4.0 mi North 13.8 mph - N/A   Partly Cloudy
6:40 AM 64.4 °F 62.6 °F 94% 29.78 in 2.5 mi North 18.4 mph 25.3 mph N/A   Scattered Clouds
6:47 AM 64.4 °F 62.6 °F 94% 29.79 in 2.5 mi North 16.1 mph 28.8 mph N/A   Mostly Cloudy
6:52 AM 64.9 °F 62.1 °F 90% 29.70 in 3.0 mi North 23.0 mph 33.4 mph N/A   Mostly Cloudy
7:28 AM 64.4 °F 60.8 °F 88% 29.82 in 6.0 mi North 23.0 mph 36.8 mph N/A   Overcast
7:52 AM 64.0 °F 57.0 °F 78% 29.74 in 8.0 mi North 21.9 mph 34.5 mph N/A   Overcast
8:52 AM 64.0 °F 54.0 °F 70% 29.78 in 8.0 mi NNE 28.8 mph 42.6 mph N/A   Overcast
9:52 AM 66.0 °F 55.0 °F 68% 29.80 in 9.0 mi NNE 29.9 mph 43.7 mph N/A   Overcast
10:52 AM 64.9 °F 55.0 °F 70% 29.85 in 10.0 mi NNE 27.6 mph 38.0 mph N/A   Overcast
11:00 AM 64.4 °F 53.6 °F 68% 29.92 in 9.0 mi North 28.8 mph 39.1 mph N/A   Overcast
11:52 AM 64.0 °F 55.0 °F 73% 29.86 in 9.0 mi North 24.2 mph 42.6 mph N/A   Overcast
12:32 PM 60.8 °F 53.6 °F 77% 29.93 in 10.0 mi North 24.2 mph 38.0 mph N/A   Overcast
12:52 PM 61.0 °F 54.0 °F 78% 29.87 in 10.0 mi North 24.2 mph 35.7 mph N/A   Overcast
1:04 PM 62.6 °F 53.6 °F 72% 29.93 in 10.0 mi North 21.9 mph 32.2 mph N/A   Overcast
1:52 PM 63.0 °F 54.0 °F 72% 29.88 in 10.0 mi North 21.9 mph 33.4 mph N/A   Overcast
2:52 PM 64.9 °F 54.0 °F 68% 29.90 in 10.0 mi North 20.7 mph 29.9 mph N/A   Overcast
3:52 PM 64.9 °F 55.0 °F 70% 29.90 in 10.0 mi North 21.9 mph 32.2 mph N/A   Overcast
4:52 PM 64.9 °F 54.0 °F 68% 29.91 in 10.0 mi NNE 20.7 mph 26.5 mph N/A   Overcast
5:52 PM 64.9 °F 54.0 °F 68% 29.91 in 10.0 mi NNE 18.4 mph 28.8 mph N/A   Overcast
6:52 PM 63.0 °F 53.1 °F 70% 29.91 in 10.0 mi North 16.1 mph 24.2 mph N/A   Overcast
7:27 PM 62.6 °F 51.8 °F 68% 29.97 in 10.0 mi NNE 16.1 mph - N/A   Overcast
7:52 PM 62.1 °F 52.0 °F 70% 29.93 in 10.0 mi NNE 13.8 mph - N/A   Overcast
8:52 PM 62.1 °F 52.0 °F 70% 29.94 in 10.0 mi NNE 17.3 mph - N/A   Overcast
9:52 PM 61.0 °F 50.0 °F 67% 29.97 in 10.0 mi NNE 21.9 mph 28.8 mph N/A   Overcast
10:52 PM 60.1 °F 48.0 °F 64% 30.01 in 10.0 mi North 20.7 mph 29.9 mph N/A   Overcast
11:52 PM 59.0 °F 41.0 °F 51% 30.03 in 10.0 mi NNE 18.4 mph 27.6 mph N/A   Overcast